Regional Weather Roundup
Issued by NWS Little Rock, AR

Home | Current Version | Previous Version | Graphics & Text | Print | Product List | Glossary On
Versions: 1 2 3 4 5 6 7 8 9 10 11 12 13 14 15 16 17 18 19 20 21 22 23 24 25 26 27 28 29 30 31 32 33 34 35 36 37 38 39 40 41 42 43 44 45 46 47 48 49 50
000
ASUS44 KLZK 250305
RWRLZK

WEATHER ROUNDUP FOR ARKANSAS
NATIONAL WEATHER SERVICE LITTLE ROCK AR
900 PM CST SAT JAN 24 2015

NOTE: "FAIR" INDICATES FEW OR NO CLOUDS BELOW 12,000 FEET WITH NO
SIGNIFICANT WEATHER AND/OR OBSTRUCTIONS TO VISIBILITY.

ARZ001-003-010-029-250400-
NORTHWEST ARKANSAS

CITY           SKY/WX    TMP DP  RH WIND       PRES   REMARKS
FAYETTEVILLE   CLEAR     43  32  65 S6        29.90F
FORT SMITH     CLEAR     42  32  67 SW6       29.91F
HARRISON       PTCLDY    49  30  48 W7        29.87F
BENTONVILLE    PTCLDY    46  30  53 SW8       29.89F
ROGERS         PTCLDY    45  32  60 SW9       29.88F
SILOAM SPGS    PTCLDY    43  28  56 SW7       29.90F
HIGHFILL       PTCLDY    45  32  60 SW8       29.88F
SPRINGDALE     CLEAR     46  32  57 SW9       29.91F
$$

ARZ004-005-016-250400-
NORTH CENTRAL ARKANSAS

CITY           SKY/WX    TMP DP  RH WIND       PRES   REMARKS
BATESVILLE     CLEAR     48  30  49 SW8       29.89S
FLIPPIN        CLEAR     46  28  49 SW3       29.87S
MTN HOME       PTCLDY    47  29  49 SW3       29.87R
$$

ARZ040-041-250400-
WEST CENTRAL ARKANSAS

CITY           SKY/WX    TMP DP  RH WIND       PRES   REMARKS
MENA           CLEAR     50  34  53 SW7       29.95F
MOUNT IDA      CLEAR     40  31  70 CALM      29.92F
$$

ARZ009-017-025-026-028-250400-
NORTHEAST ARKANSAS

CITY           SKY/WX    TMP DP  RH WIND       PRES   REMARKS
CORNING        FAIR      39  34  81 SW9       29.87F
JONESBORO      CLEAR     41  34  76 SW7       29.89F
NEWPORT        CLEAR     39  32  76 SW8       29.91S
BLYTHEVILLE    CLEAR     42  34  73 SW12      29.90S
$$

ARZ022-023-033-042-044-250400-
CENTRAL ARKANSAS

CITY           SKY/WX    TMP DP  RH WIND       PRES   REMARKS
LITTLE ROCK    CLEAR     48  31  51 SW7       29.93F
N LITTLE ROCK  CLEAR     49  35  58 SW5       29.93F
JACKSONVILLE   CLEAR     40  30  67 W2        29.92F
SEARCY         CLEAR     43  31  62 W3        29.92F
HOT SPRINGS    FAIR      46  34  62 CALM      29.95F
RUSSELLVILLE   CLEAR     37  31  78 CALM      29.92F
CLINTON        FAIR      34  32  93 CALM      29.92F
$$

ARZ036-250400-
EAST ARKANSAS

CITY           SKY/WX    TMP DP  RH WIND       PRES   REMARKS
WEST MEMPHIS   CLEAR     41  34  76 S7        29.91F
$$

ARZ050-053-066-070-073-250400-
SOUTHWEST ARKANSAS

CITY           SKY/WX    TMP DP  RH WIND       PRES   REMARKS
ARKADELPHIA    FAIR      38  35  89 W3        29.98S
CAMDEN         CLEAR     37  32  81 CALM      29.98S
TEXARKANA      CLEAR     44  35  70 SW8       29.99S
EL DORADO      CLEAR     39  35  86 SW3       30.00S
DE QUEEN       CLEAR     37  34  89 CALM      29.97S
$$

ARZ056-057-069-250400-
SOUTHEAST ARKANSAS

CITY           SKY/WX    TMP DP  RH WIND       PRES   REMARKS
PINE BLUFF     CLEAR     47  31  53 SW7       29.95F
STUTTGART      CLEAR     43  34  70 SW10      29.94F
MONTICELLO     CLEAR     49  32  52 SW7       29.97S

$$





USA.gov is the U.S. government's official web portal to all federal, state and local government web resources and services.